Location: Acheville
(50.3840°N, 2.8827°E)
Time: 19:33:35
(UTC+00:00)

Cosmos 2278 Rocket - Pass Details

Date: 24 October 2021
Orbit: 841 x 845 km, 71.0° (Epoch: 07 December)

Event Time Altitude Azimuth Distance (km) Brightness Sun altitude
Rises 19:27:00 0° 332° (NNW) 3,417 6.0 -27.3°
Reaches altitude 10° 19:29:32 10° 337° (NNW) 2,478 5.1 -27.7°
Enters shadow 19:33:54 46° 13° (NNE) 1,131 2.8 -28.4°
